P/2002 T6 ( NEAT-LINEAR )

Japanese version
Home page
Updated on September 29, 2004

---------------------------------------------------------------------

* Profile

Discovery Date October 4 and 7, 2002
Magnitude 20.1 mag, 19.4 mag
Discoverer Near-Earth-Asteroid Tracking Team (Jet Propulsion Laboratory), Lincoln Laboratory Near-Earth Asteroid Research project

* Pictures

* Orbital Elements

Epoch 2003 June 10.0 TT = JDT 2452800.5
T 2003 June 27.00486 TT                                 MPC
q   3.3870767            (2000.0)            P               Q
n   0.04657329     Peri.  217.57066     +0.40232477     -0.91078988
a   7.6508812      Node   209.04628     +0.87944782     +0.41263531
e   0.5572959      Incl.   11.00925     +0.25437434     +0.01392476
P  21.16
>From 171 observations 2002 Sept. 15-2003 Aug. 31, mean residual 0".59.

* Finding Charts

* Magnitudes Graph

        m1 = -7 + 5 log d + 38.5 log r(t - 117)

---------------------------------------------------------------------

The orbital elements are published on M.P.E.C. 2003-R05.
The charts are made with StellaNavigator Ver.2.0 for Windows (AstroArts / ASCII).
The magnitudes graphs are made with Comet for Windows.

---------------------------------------------------------------------

Copyright(C) Seiichi Yoshida (comet@aerith.net). All rights reserved.